Farmington, MO

4:00 PM CST on November 11, 2019 (GMT -0600)
Farmington Regional

Weather History for KFAM - June, 2019

Change the Weather History Date:

Sunday, June 2, 2019

  Actual Average Record
Temperature  
Mean Temperature 69 °F -  
Max Temperature 78 °F 75 °F 91 °F (1998)
Min Temperature 59 °F 56 °F 44 °F (2012)
Cooling Degree Days 4    
Growing Degree Days 19 (Base 50)    
Moisture  
Dew Point 60 °F    
Average Humidity 79    
Maximum Humidity 100    
Minimum Humidity 48    
Precipitation  
Precipitation 0.15 in - - ()
Sea Level Pressure  
Sea Level Pressure 29.94 in    
Wind  
Wind Speed 7 mph (NNW)    
Max Wind Speed 14 mph    
Max Gust Speed 25 mph    
Visibility 9 miles    
Events Rain , Thunderstorm    
Averages and records for this station are not official NWS values.
T = Trace of Precipitation, MM = Missing Value Source: NWS Daily Summary

Daily Weather History Graph

Daily Weather History Graph

Search for Another Location

Airport or City:

Astronomy

Jun. 02, 2019 Rise Set
Actual Time 5:41 AM CDT 8:18 PM CDT
Civil Twilight 5:10 AM CDT 8:49 PM CDT
Nautical Twilight 4:32 AM CDT 9:27 PM CDT
Astronomical Twilight 3:49 AM CDT 10:10 PM CDT
Moon 5:19 AM CDT (6/2) 7:39 PM CDT (6/2)
Length of Visible Light 15h 38m
Length of Day
14h 37m
Waning Crescent, 1% of the Moon is Illuminated
Jun 2
Waning Crescent
Jun 3
New
Jun 10
First Quarter
Jun 17
Full
Jun 25
Last Quarter

Hourly Weather History & Observations

Time (CDT) Temp. Dew Point Humidity Pressure Visibility Wind Dir Wind Speed Gust Speed Precip Events Conditions
12:01 AM 62.6 °F 60.8 °F 94% 29.94 in 3.0 mi North 11.5 mph 25.3 mph 0.07 in Rain , Thunderstorm Heavy Thunderstorms and Rain
12:14 AM 62.6 °F 62.6 °F 100% 29.93 in 9.0 mi NE 13.8 mph - 0.12 in Rain , Thunderstorm Light Thunderstorms and Rain
12:37 AM 62.6 °F 62.6 °F 100% 29.88 in 10.0 mi East 13.8 mph - 0.15 in Rain Light Rain
12:56 AM 63.0 °F 61.0 °F 93% 29.85 in 10.0 mi Calm Calm - 0.15 in   Partly Cloudy
1:56 AM 62.1 °F 61.0 °F 96% 29.85 in 10.0 mi SW 4.6 mph - N/A   Clear
2:56 AM 62.1 °F 61.0 °F 96% 29.84 in 10.0 mi South 4.6 mph - N/A   Clear
3:56 AM 61.0 °F 60.1 °F 97% 29.86 in 2.5 mi WNW 3.5 mph - N/A   Clear
4:56 AM 60.1 °F 60.1 °F 100% 29.87 in 10.0 mi SSE 3.5 mph - N/A   Clear
5:56 AM 60.1 °F 59.0 °F 96% 29.89 in 10.0 mi Calm Calm - N/A   Clear
6:56 AM 62.1 °F 61.0 °F 96% 29.91 in 10.0 mi Calm Calm - N/A   Clear
7:56 AM 66.9 °F 63.0 °F 87% 29.92 in 10.0 mi NW 6.9 mph - N/A   Clear
8:56 AM 69.1 °F 64.0 °F 84% 29.94 in 10.0 mi NW 8.1 mph - N/A   Clear
9:56 AM 72.0 °F 64.9 °F 78% 29.94 in 10.0 mi NW 4.6 mph - N/A   Clear
10:56 AM 73.9 °F 66.0 °F 76% 29.96 in 10.0 mi North 9.2 mph 16.1 mph N/A   Partly Cloudy
11:56 AM 75.0 °F 64.9 °F 71% 29.97 in 10.0 mi Variable 5.8 mph - N/A   Mostly Cloudy
12:56 PM 77.0 °F 63.0 °F 62% 29.97 in 10.0 mi North 8.1 mph - N/A   Partly Cloudy
1:56 PM 78.1 °F 62.1 °F 58% 29.96 in 10.0 mi NW 9.2 mph - N/A   Scattered Clouds
2:56 PM 78.1 °F 62.1 °F 58% 29.96 in 10.0 mi North 9.2 mph 18.4 mph N/A   Partly Cloudy
3:56 PM 77.0 °F 59.0 °F 54% 29.97 in 10.0 mi WNW 5.8 mph - N/A   Partly Cloudy
4:56 PM 75.9 °F 57.0 °F 52% 29.97 in 10.0 mi NNW 4.6 mph - N/A   Clear
5:56 PM 75.9 °F 55.0 °F 48% 29.96 in 10.0 mi North 8.1 mph - N/A   Clear
6:56 PM 73.9 °F 57.0 °F 55% 29.96 in 10.0 mi North 6.9 mph - N/A   Clear
7:56 PM 72.0 °F 55.9 °F 57% 29.97 in 10.0 mi North 3.5 mph - N/A   Clear
8:56 PM 69.1 °F 55.0 °F 61% 29.97 in 10.0 mi North 4.6 mph - N/A   Clear
9:56 PM 64.0 °F 57.9 °F 80% 29.99 in 10.0 mi Calm Calm - N/A   Clear
10:56 PM 61.0 °F 57.9 °F 90% 30.01 in 10.0 mi Calm Calm - N/A   Clear
11:56 PM 59.0 °F 57.0 °F 93% 30.01 in 10.0 mi Calm Calm - N/A   Clear